TimeCDT,TemperatureF,Dew PointF,Humidity,Sea Level PressureIn,VisibilityMPH,Wind Direction,Wind SpeedMPH,Gust SpeedMPH,PrecipitationIn,Events,Conditions,WindDirDegrees,DateUTC
12:08 AM,55.9,22.1,27,-9999,-9999.0,SSW,11.5,-,N/A,,Unknown,200,2012-11-02 05:08:00
12:28 AM,55.9,21.0,26,-9999,-9999.0,South,11.5,-,N/A,,Unknown,190,2012-11-02 05:28:00
12:48 AM,55.0,20.1,26,-9999,-9999.0,SSW,13.8,-,N/A,,Unknown,200,2012-11-02 05:48:00
1:08 AM,53.1,19.0,26,-9999,-9999.0,SSW,11.5,-,N/A,,Unknown,200,2012-11-02 06:08:00
1:28 AM,55.0,21.0,27,-9999,-9999.0,SW,9.2,-,N/A,,Unknown,230,2012-11-02 06:28:00
1:48 AM,54.0,20.1,27,-9999,-9999.0,SSW,11.5,-,N/A,,Unknown,210,2012-11-02 06:48:00
2:08 AM,55.9,20.1,25,-9999,-9999.0,SW,12.7,-,N/A,,Unknown,220,2012-11-02 07:08:00
2:28 AM,55.9,21.0,26,-9999,-9999.0,WSW,10.4,-,N/A,,Unknown,240,2012-11-02 07:28:00
2:48 AM,55.9,20.1,25,-9999,-9999.0,WSW,6.9,-,N/A,,Unknown,250,2012-11-02 07:48:00
3:08 AM,55.9,20.1,25,-9999,-9999.0,West,11.5,-,N/A,,Unknown,260,2012-11-02 08:08:00
3:28 AM,55.9,19.0,24,-9999,-9999.0,WSW,11.5,-,N/A,,Unknown,250,2012-11-02 08:28:00
3:48 AM,55.0,19.0,24,-9999,-9999.0,WSW,10.4,-,N/A,,Unknown,240,2012-11-02 08:48:00
4:08 AM,55.0,19.0,24,-9999,-9999.0,WSW,10.4,-,N/A,,Unknown,240,2012-11-02 09:08:00
4:28 AM,54.0,19.0,25,-9999,-9999.0,WSW,10.4,-,N/A,,Unknown,240,2012-11-02 09:28:00
4:48 AM,55.0,18.1,24,-9999,-9999.0,WSW,10.4,-,N/A,,Unknown,240,2012-11-02 09:48:00
5:08 AM,55.0,18.1,24,-9999,-9999.0,WSW,11.5,-,N/A,,Unknown,250,2012-11-02 10:08:00
5:28 AM,55.0,18.1,24,-9999,-9999.0,WSW,11.5,-,N/A,,Unknown,250,2012-11-02 10:28:00
5:48 AM,55.9,18.1,23,-9999,-9999.0,WSW,10.4,-,N/A,,Unknown,250,2012-11-02 10:48:00
6:08 AM,57.0,18.1,22,-9999,-9999.0,West,10.4,-,N/A,,Unknown,260,2012-11-02 11:08:00
6:28 AM,53.1,18.1,25,-9999,-9999.0,West,8.1,-,N/A,,Unknown,260,2012-11-02 11:28:00
6:48 AM,52.0,18.1,26,-9999,-9999.0,West,9.2,-,N/A,,Unknown,260,2012-11-02 11:48:00
7:08 AM,52.0,17.1,25,-9999,-9999.0,West,9.2,-,N/A,,Unknown,270,2012-11-02 12:08:00
7:28 AM,51.1,17.1,26,-9999,-9999.0,West,11.5,-,N/A,,Unknown,280,2012-11-02 12:28:00
7:48 AM,50.0,17.6,28,-9999,-9999.0,West,10.4,-,N/A,,Unknown,270,2012-11-02 12:48:00
8:08 AM,50.0,17.1,27,-9999,-9999.0,West,10.4,-,N/A,,Unknown,270,2012-11-02 13:08:00
8:28 AM,50.0,17.1,27,-9999,-9999.0,West,10.4,-,N/A,,Unknown,270,2012-11-02 13:28:00
8:48 AM,51.1,18.1,27,-9999,-9999.0,West,11.5,-,N/A,,Unknown,270,2012-11-02 13:48:00
9:08 AM,53.1,18.1,25,-9999,-9999.0,West,12.7,-,N/A,,Unknown,270,2012-11-02 14:08:00
9:28 AM,55.0,19.0,24,-9999,-9999.0,West,12.7,-,N/A,,Unknown,280,2012-11-02 14:28:00
9:48 AM,57.9,20.1,23,-9999,-9999.0,WNW,15.0,-,N/A,,Unknown,290,2012-11-02 14:48:00
10:08 AM,59.0,21.0,23,-9999,-9999.0,WNW,12.7,-,N/A,,Unknown,300,2012-11-02 15:08:00
10:28 AM,60.1,23.0,24,-9999,-9999.0,WNW,11.5,-,N/A,,Unknown,300,2012-11-02 15:28:00
10:48 AM,64.0,25.2,23,-9999,-9999.0,NW,12.7,-,N/A,,Unknown,320,2012-11-02 15:48:00
11:08 AM,66.0,26.1,22,-9999,-9999.0,NNW,10.4,-,N/A,,Unknown,330,2012-11-02 16:08:00
11:28 AM,66.9,27.1,22,-9999,-9999.0,North,16.1,-,N/A,,Unknown,350,2012-11-02 16:28:00
11:48 AM,68.0,28.0,22,-9999,-9999.0,North,16.1,-,N/A,,Unknown,350,2012-11-02 16:48:00
12:08 PM,69.1,29.1,23,-9999,-9999.0,North,13.8,-,N/A,,Unknown,360,2012-11-02 17:08:00
12:28 PM,70.0,29.1,22,-9999,-9999.0,North,13.8,-,N/A,,Unknown,350,2012-11-02 17:28:00
12:48 PM,71.1,30.0,22,-9999,-9999.0,North,12.7,-,N/A,,Unknown,350,2012-11-02 17:48:00
1:08 PM,72.0,30.0,21,-9999,-9999.0,North,12.7,-,N/A,,Unknown,360,2012-11-02 18:08:00
1:28 PM,72.0,30.0,21,-9999,-9999.0,North,18.4,-,N/A,,Unknown,350,2012-11-02 18:28:00
1:48 PM,72.0,31.1,22,-9999,-9999.0,North,16.1,-,N/A,,Unknown,350,2012-11-02 18:48:00
2:08 PM,73.0,31.1,21,-9999,-9999.0,NNE,16.1,-,N/A,,Unknown,20,2012-11-02 19:08:00
2:28 PM,73.9,31.1,21,-9999,-9999.0,North,13.8,-,N/A,,Unknown,10,2012-11-02 19:28:00
2:48 PM,75.0,30.0,19,-9999,-9999.0,North,9.2,-,N/A,,Unknown,350,2012-11-02 19:48:00
3:08 PM,73.9,29.1,19,-9999,-9999.0,North,12.7,-,N/A,,Unknown,350,2012-11-02 20:08:00
3:28 PM,73.9,29.1,19,-9999,-9999.0,NNE,16.1,-,N/A,,Unknown,20,2012-11-02 20:28:00
3:48 PM,73.9,30.0,20,-9999,-9999.0,NNE,13.8,-,N/A,,Unknown,20,2012-11-02 20:48:00
4:08 PM,73.9,30.0,20,-9999,-9999.0,North,15.0,-,N/A,,Unknown,10,2012-11-02 21:08:00
4:28 PM,75.0,30.0,19,-9999,-9999.0,North,11.5,-,N/A,,Unknown,360,2012-11-02 21:28:00
4:48 PM,73.9,30.0,20,-9999,-9999.0,North,15.0,-,N/A,,Unknown,360,2012-11-02 21:48:00
5:08 PM,73.0,30.0,20,-9999,-9999.0,North,13.8,-,N/A,,Unknown,10,2012-11-02 22:08:00
5:28 PM,72.0,29.1,20,-9999,-9999.0,North,13.8,-,N/A,,Unknown,360,2012-11-02 22:28:00
5:48 PM,71.1,30.0,22,-9999,-9999.0,North,10.4,-,N/A,,Unknown,10,2012-11-02 22:48:00
6:08 PM,69.1,29.1,23,-9999,-9999.0,NNE,13.8,-,N/A,,Unknown,30,2012-11-02 23:08:00
6:28 PM,66.0,29.1,25,-9999,-9999.0,NNE,9.2,-,N/A,,Unknown,30,2012-11-02 23:28:00
6:48 PM,64.9,28.0,25,-9999,-9999.0,North,11.5,-,N/A,,Unknown,10,2012-11-02 23:48:00
7:08 PM,63.0,28.0,27,-9999,-9999.0,North,9.2,-,N/A,,Unknown,10,2012-11-03 00:08:00
7:28 PM,61.0,28.0,29,-9999,-9999.0,NNE,8.1,-,N/A,,Unknown,20,2012-11-03 00:28:00
7:48 PM,59.0,28.0,31,-9999,-9999.0,North,9.2,-,N/A,,Unknown,10,2012-11-03 00:48:00
8:08 PM,57.9,28.0,32,-9999,-9999.0,North,9.2,-,N/A,,Unknown,10,2012-11-03 01:08:00
8:28 PM,57.0,28.0,33,-9999,-9999.0,North,8.1,-,N/A,,Unknown,10,2012-11-03 01:28:00
8:48 PM,55.0,28.0,35,-9999,-9999.0,North,9.2,-,N/A,,Unknown,10,2012-11-03 01:48:00
9:08 PM,54.0,28.0,37,-9999,-9999.0,North,9.2,-,N/A,,Unknown,10,2012-11-03 02:08:00
9:28 PM,53.1,29.1,40,-9999,-9999.0,North,10.4,-,N/A,,Unknown,10,2012-11-03 02:28:00
9:48 PM,51.1,28.0,41,-9999,-9999.0,NNE,9.2,-,N/A,,Unknown,20,2012-11-03 02:48:00
10:08 PM,51.1,29.1,43,-9999,-9999.0,NNE,11.5,-,N/A,,Unknown,30,2012-11-03 03:08:00
10:28 PM,50.0,30.0,46,-9999,-9999.0,NNE,8.1,-,N/A,,Unknown,30,2012-11-03 03:28:00
10:48 PM,48.9,30.0,48,-9999,-9999.0,NNE,9.2,-,N/A,,Unknown,20,2012-11-03 03:48:00
11:08 PM,48.0,30.0,50,-9999,-9999.0,NNE,8.1,-,N/A,,Unknown,20,2012-11-03 04:08:00
11:28 PM,48.0,30.0,50,-9999,-9999.0,NNE,8.1,-,N/A,,Unknown,20,2012-11-03 04:28:00
11:48 PM,46.9,29.1,50,-9999,-9999.0,NNE,9.2,-,N/A,,Unknown,20,2012-11-03 04:48:00